Theta_e
301 302 302 302 302 302 302 302 303 304 305 299 298 304 299 298 296 306 309 311 309 301 293 294 291 288 291 296 294 295 294 293 295 294 296 294 298 294 294 295 293 293 293 292 290 292 287 290 289 290 291 292 295 298 299 299 296 294 288 291 289 293 286 283 285 287 286 288 288 288 289 288 286 286 286 284 283 284 283 283 283 282 282 281 281 279 283
303 301 300 301 301 301 301 301 302 303 304 299 300 298 295 295 296 300 309 311 307 298 288 287 289 289 292 292 291 296 294 295 293 294 295 294 292 294 294 295 297 294 296 293 291 294 286 290 291 289 292 291 300 299 299 300 294 294 290 290 290 286 285 283 280 282 282 284 287 286 285 287 283 283 286 288 288 287 286 286 284 281 282 283 280 276 282
302 303 302 300 300 300 300 300 300 301 304 302 299 294 298 297 300 300 303 308 305 295 297 294 290 290 290 290 289 291 291 293 295 295 294 297 295 294 293 296 296 293 295 293 294 294 293 287 289 290 288 290 295 295 296 297 294 294 294 294 295 288 284 283 278 276 275 275 276 278 281 281 282 284 287 288 287 287 284 281 283 279 283 284 281 280 286
301 301 301 303 301 300 300 299 300 300 303 303 298 296 294 292 285 295 297 302 300 299 301 298 295 291 289 288 290 292 290 293 295 295 294 297 296 296 295 294 296 294 292 290 291 290 293 290 285 288 285 287 289 294 295 295 294 294 294 291 292 285 285 285 284 282 280 283 284 286 286 283 281 283 284 285 287 287 287 286 283 280 283 282 284 285 285
300 300 300 301 302 303 302 300 299 299 300 303 297 295 294 294 289 290 287 297 297 295 298 296 297 292 295 287 291 289 290 291 292 296 290 294 294 293 294 294 292 291 293 291 291 292 291 292 290 287 287 288 289 291 292 293 294 295 291 292 289 284 283 285 285 285 286 287 287 289 289 285 286 286 285 286 285 286 285 283 281 287 283 279 286 287 285
301 301 300 300 300 301 302 300 299 299 299 301 298 288 293 286 289 293 295 290 286 290 291 296 295 296 296 291 293 290 290 290 288 292 295 294 294 290 290 294 294 293 292 292 288 289 290 289 287 290 289 289 290 290 292 290 292 292 289 291 288 283 282 285 285 284 287 287 287 289 288 287 287 287 287 286 287 285 283 284 286 286 282 280 285 287 285
300 301 301 301 300 300 301 301 300 301 299 299 293 286 289 292 290 291 295 288 290 289 289 290 291 291 293 290 292 289 290 290 292 290 287 291 288 294 287 290 293 293 293 292 289 290 285 285 289 288 287 287 288 287 288 291 292 291 290 288 287 286 283 286 286 284 285 286 286 288 287 286 287 286 287 287 286 286 286 285 286 286 285 286 287 287 286
300 300 300 300 300 300 299 300 300 300 301 297 291 290 286 284 288 284 290 289 287 287 287 288 289 287 291 287 288 290 289 287 290 292 291 287 289 294 290 291 293 292 292 292 289 290 292 290 287 288 287 287 288 287 289 288 286 288 287 287 286 288 283 289 286 283 283 286 287 287 286 286 284 286 287 287 287 286 286 286 287 287 285 286 286 285 285
300 299 300 300 300 300 300 299 299 299 300 288 288 286 290 291 292 293 286 282 284 284 283 285 287 286 288 287 289 290 289 289 291 290 294 291 288 291 290 291 288 289 289 289 290 292 287 286 287 290 289 286 289 286 285 293 288 285 284 286 284 287 283 288 285 281 281 285 285 285 286 285 285 285 286 286 285 283 285 285 287 285 284 285 285 283 283
299 300 299 299 299 300 300 300 299 298 299 290 288 283 289 290 292 294 289 282 286 283 282 282 283 280 285 287 288 289 288 290 289 285 292 293 293 292 288 287 287 286 287 287 287 285 286 288 290 290 291 293 293 294 293 293 288 286 286 287 285 285 283 283 283 280 280 286 286 285 285 283 280 282 285 287 287 288 288 289 289 288 288 284 282 283 289
299 299 299 300 300 300 300 300 300 300 295 288 287 285 288 286 285 286 288 281 283 284 282 281 281 282 283 284 284 286 286 288 288 283 284 290 288 291 289 287 285 284 285 287 289 289 290 291 291 292 293 292 292 294 294 293 292 290 288 286 285 286 285 284 286 281 281 285 285 285 281 274 276 287 291 289 287 287 286 286 287 289 289 287 289 290 292
300 299 300 300 300 300 300 300 300 300 299 292 292 288 289 290 288 287 282 278 279 282 281 280 282 282 284 285 284 282 282 282 283 287 283 286 287 289 287 287 287 281 290 289 290 291 292 292 291 292 292 292 292 292 292 291 292 294 293 289 287 286 285 284 285 281 279 284 284 279 273 276 286 291 292 292 291 290 289 289 290 290 290 290 289 290 290
299 300 300 300 299 300 300 300 300 300 299 295 293 288 290 291 288 286 285 281 277 280 278 279 282 281 282 282 281 281 283 283 284 285 284 283 283 285 287 286 285 286 290 287 289 289 284 282 284 285 285 287 288 289 289 289 290 292 292 291 288 285 285 285 283 283 283 280 279 273 274 285 285 289 290 292 292 290 289 286 289 290 290 290 289 290 291
299 299 299 299 299 299 300 300 300 299 299 298 292 290 290 290 287 286 283 279 278 281 280 280 281 280 281 281 281 282 282 282 282 281 280 283 282 282 284 286 289 288 287 289 288 285 281 282 279 280 279 282 282 283 286 288 288 288 289 290 291 288 287 286 281 286 278 279 280 279 285 284 282 284 285 287 284 285 284 280 284 289 287 288 288 289 290
299 299 299 299 300 300 300 299 299 299 299 299 294 292 290 291 290 286 285 284 277 280 281 275 278 279 282 281 281 279 279 279 278 278 281 282 281 283 284 285 285 283 286 284 281 282 280 280 275 274 276 276 273 277 286 282 286 290 290 290 291 291 286 286 283 280 285 279 278 278 278 275 281 289 288 292 292 291 290 286 283 281 280 286 285 284 286
299 299 299 299 299 299 299 299 299 299 298 299 296 293 292 292 291 290 287 283 280 273 278 282 281 279 278 278 279 278 276 277 277 277 277 278 280 282 283 283 282 284 283 281 281 278 276 274 272 273 271 274 278 278 275 282 277 281 284 286 286 288 289 287 284 281 284 281 277 277 275 279 284 283 288 290 292 292 290 284 280 281 279 283 286 285 286
299 299 299 299 299 299 299 299 299 299 299 299 293 292 290 293 291 288 284 282 281 276 283 282 283 281 278 275 279 278 278 276 277 275 275 276 278 280 282 283 281 282 281 277 276 276 273 273 274 273 274 276 273 273 279 278 277 278 282 282 283 284 285 284 281 280 281 280 277 275 280 277 278 282 284 286 287 290 284 276 275 277 280 282 283 285 285
299 299 299 298 299 299 298 298 299 299 299 299 296 291 290 292 293 290 286 283 281 280 284 284 280 278 277 278 276 278 280 276 276 275 275 275 274 275 275 277 274 280 282 275 274 274 274 274 271 272 270 277 277 276 270 276 274 275 271 273 275 278 280 283 278 280 280 281 278 281 281 283 280 282 284 285 287 285 278 272 273 278 281 282 284 285 285
298 299 299 299 298 298 299 299 298 298 298 298 296 293 292 293 292 291 287 284 282 277 284 286 285 282 283 284 280 280 279 277 276 275 274 275 276 277 276 275 279 273 276 271 276 273 272 272 278 275 273 275 278 271 274 266 270 275 274 273 273 273 275 277 279 276 276 278 275 277 281 281 282 283 284 286 283 278 273 277 281 281 281 282 285 285 285
298 298 298 298 298 298 298 298 298 298 298 299 296 289 291 294 293 292 286 282 284 281 284 284 284 281 284 281 278 278 278 280 280 278 274 272 276 276 275 270 272 271 268 274 269 274 272 271 274 274 269 273 275 279 273 273 277 273 273 275 273 272 273 270 272 273 274 273 273 274 272 280 283 282 280 283 273 274 281 281 281 282 283 284 285 285 285
298 297 298 298 298 298 298 297 297 297 298 298 297 290 288 292 293 293 292 288 284 279 281 288 287 285 285 284 284 284 281 279 279 276 278 277 274 273 265 267 266 268 264 269 265 266 269 265 269 269 273 272 272 275 269 272 272 278 277 273 273 278 271 270 273 277 271 272 271 272 278 278 282 281 275 280 279 282 282 281 280 283 285 284 284 284 285
298 298 298 298 298 297 297 297 298 297 298 297 297 290 287 291 293 293 292 287 284 282 284 286 286 285 287 287 287 286 286 285 285 285 278 275 276 279 273 273 269 270 270 272 267 267 269 269 271 268 265 267 269 267 269 267 265 272 274 274 268 279 274 277 273 277 274 270 274 278 281 281 281 281 280 281 282 282 282 282 283 283 284 285 283 283 284
297 298 298 297 298 298 297 297 298 298 298 298 295 289 286 289 290 293 290 284 287 288 288 287 288 288 289 290 290 289 288 289 287 285 284 280 275 277 277 275 273 278 274 278 270 271 269 269 267 270 268 268 268 267 266 268 266 268 268 273 274 278 279 278 275 273 279 279 279 280 280 280 279 279 281 281 281 283 284 284 282 283 284 284 283 283 283
298 297 297 297 297 297 297 297 297 297 297 297 297 288 288 291 291 290 288 288 284 281 284 286 283 280 283 283 288 290 290 288 289 288 288 286 278 276 279 279 280 278 273 278 280 274 269 270 269 271 269 273 272 267 267 267 270 273 272 270 272 274 276 274 272 274 272 266 277 276 276 278 278 279 280 281 281 281 282 280 280 281 282 282 282 282 282
297 296 298 298 297 297 297 297 298 297 297 297 297 294 291 288 289 289 284 279 278 279 275 279 282 285 287 289 290 288 288 290 291 289 287 286 283 279 277 281 282 279 277 279 279 274 272 271 270 270 268 274 272 266 273 268 267 273 266 269 272 270 278 272 272 272 270 269 274 275 277 277 278 278 277 278 278 278 280 279 279 279 280 280 280 281 280
297 297 297 296 296 297 297 296 296 297 297 297 296 289 287 288 291 291 289 287 283 279 275 275 280 287 287 285 284 286 289 289 288 288 288 287 287 286 284 284 281 282 280 280 278 274 268 268 269 267 267 268 277 267 267 272 270 274 271 270 275 274 275 267 272 271 272 274 274 275 274 274 275 276 275 276 276 276 277 278 277 277 277 277 278 279 278
297 297 297 296 296 297 296 297 296 296 297 297 294 292 290 289 291 287 285 284 279 275 278 275 280 277 279 282 285 286 287 287 287 286 286 287 286 286 285 283 281 280 279 277 277 275 271 270 270 270 272 270 273 269 271 269 271 269 268 273 275 273 269 273 271 267 267 268 271 273 269 269 274 275 274 275 276 276 275 275 275 275 275 275 275 275 276
297 297 296 296 296 296 297 296 296 297 297 297 295 291 288 288 290 290 289 287 283 277 277 274 273 273 279 276 283 284 285 286 286 285 285 285 286 285 284 283 282 280 277 275 270 272 271 271 271 274 273 271 271 269 275 275 275 271 271 273 275 272 273 273 269 268 268 273 274 272 273 272 273 274 274 274 274 274 271 271 272 272 273 272 271 271 272
295 296 296 295 296 296 296 296 296 296 296 296 290 287 285 287 290 292 291 289 286 283 281 280 280 276 274 276 282 282 284 285 285 284 284 284 284 284 283 283 281 281 280 279 277 275 272 273 277 272 269 273 272 267 271 266 267 267 271 275 275 276 277 275 275 275 275 276 273 271 270 271 274 273 272 273 273 271 270 271 271 271 271 270 270 270 270
295 296 296 295 295 296 296 296 295 295 296 288 284 282 281 284 289 289 292 291 287 284 277 276 273 276 281 281 279 280 281 284 283 283 283 283 283 283 284 283 282 284 281 279 278 273 276 275 276 277 278 279 272 267 268 268 267 270 275 275 276 276 277 277 277 275 274 273 269 270 270 270 271 272 272 272 272 270 269 269 270 270 270 269 269 269 269
295 296 296 296 296 295 295 295 296 296 295 285 283 279 278 275 283 291 294 292 290 283 277 278 275 280 275 278 278 279 280 283 282 282 282 283 283 283 284 284 283 283 279 279 277 277 278 270 274 275 278 279 278 267 265 266 265 266 274 276 276 276 276 277 274 271 270 268 268 268 268 269 271 271 271 271 270 269 268 268 269 270 269 268 268 267 267
295 295 294 295 296 296 296 296 295 295 290 285 283 281 283 282 286 289 293 293 289 282 278 275 274 275 274 277 278 280 281 282 282 282 281 283 280 282 282 282 280 282 281 278 278 277 275 277 276 276 275 279 279 270 270 269 267 269 274 275 276 276 276 276 270 269 267 267 267 269 270 272 270 268 268 269 267 267 267 267 268 267 268 267 266 266 265
295 295 294 294 295 296 296 295 295 294 286 289 294 295 295 294 293 292 294 288 285 281 281 277 272 274 272 271 273 274 280 277 276 279 276 282 278 281 278 282 281 280 285 280 276 274 277 277 277 273 276 279 273 272 270 268 270 274 275 276 276 276 272 269 268 269 266 265 266 265 266 267 267 267 266 266 266 266 267 266 266 266 264 263 262 263 264
294 295 295 294 295 295 294 294 295 295 293 288 283 285 288 294 294 294 287 283 282 283 281 275 272 272 271 271 265 270 281 276 274 277 271 278 280 279 274 277 279 277 279 276 278 277 273 276 272 273 273 271 274 268 266 271 275 274 276 275 274 267 266 266 267 265 264 264 264 264 264 264 264 264 264 264 265 266 265 265 264 262 261 261 262 263 263
295 294 294 293 294 295 295 293 288 286 283 285 286 287 289 294 295 294 290 283 274 276 277 276 275 270 269 267 266 270 278 276 273 277 273 274 282 277 277 272 274 273 274 282 276 276 273 273 276 268 268 268 267 267 270 273 274 275 274 275 267 264 265 266 265 263 263 264 262 262 263 263 262 262 263 264 263 263 263 263 263 261 260 261 261 262 262
294 295 294 293 294 293 287 289 285 282 281 282 283 290 294 294 295 292 289 287 283 276 275 275 276 271 272 268 266 270 280 274 277 276 276 273 273 276 275 273 269 274 278 276 272 276 271 276 271 268 272 267 267 269 271 274 273 274 271 266 263 263 262 261 261 261 261 261 260 261 260 261 262 261 261 261 262 262 262 261 261 261 260 260 260 260 260
294 294 294 292 288 285 281 280 285 284 281 285 288 292 294 291 285 285 284 282 281 282 276 275 272 272 274 270 272 274 276 265 275 270 270 270 267 270 270 269 269 274 270 268 269 269 274 279 270 267 267 268 270 275 272 268 267 266 263 261 262 262 262 261 261 260 258 258 257 260 261 259 259 259 260 260 260 260 259 258 259 259 258 258 258 258 258
294 293 285 282 281 278 276 277 277 281 292 291 292 284 279 283 277 279 279 277 280 281 276 277 273 275 277 272 268 277 276 269 274 267 266 269 270 266 270 269 268 273 265 266 270 277 270 268 267 268 269 273 273 265 263 263 262 262 261 260 260 261 261 260 260 258 256 256 259 258 257 257 258 259 258 258 258 258 258 259 259 259 259 258 258 258 258
292 286 283 282 279 276 275 272 286 293 289 288 285 277 276 278 274 271 271 274 277 272 275 275 273 274 270 269 270 279 274 268 268 269 266 272 270 263 268 264 269 270 263 264 265 275 263 264 264 263 265 267 271 263 261 261 261 260 259 259 259 260 260 259 259 258 256 255 257 257 257 256 256 256 257 257 258 258 258 258 258 258 258 257 257 257 257
283 279 280 280 278 279 285 287 293 289 284 280 279 276 270 275 271 267 274 269 270 272 274 269 276 274 275 272 271 271 280 273 268 267 268 268 276 264 269 262 267 265 258 261 265 272 264 260 263 262 263 267 266 258 259 258 258 258 258 257 258 258 259 258 257 259 258 258 258 257 257 258 258 257 256 256 256 256 256 256 257 257 256 256 257 256 256
281 280 279 277 279 281 283 283 283 282 278 275 274 273 270 267 270 270 269 264 264 263 270 269 271 270 274 276 275 271 277 278 273 272 271 267 274 271 264 261 270 260 259 257 266 266 264 260 260 260 263 261 256 256 255 255 256 255 256 256 256 256 256 256 256 256 256 255 255 255 255 255 256 256 256 256 255 255 255 255 255 255 255 255 255 255 257
284 281 279 282 282 280 279 280 280 276 275 275 270 268 270 269 271 266 266 264 265 264 263 268 263 266 265 274 272 274 270 272 269 273 269 265 273 268 264 264 267 263 259 264 263 263 262 259 259 262 259 254 255 254 254 253 254 254 254 255 255 254 255 255 254 254 254 254 254 255 255 255 255 255 255 255 255 254 254 254 254 254 255 255 256 256 256
290 286 284 278 277 276 278 272 275 273 268 269 267 264 267 263 266 265 264 268 268 265 263 267 267 276 273 274 270 271 271 277 272 266 262 260 272 265 258 259 262 259 263 266 264 261 259 259 257 261 253 254 252 253 252 252 254 253 254 255 255 255 255 254 254 254 254 255 254 254 254 254 254 254 255 254 254 254 254 254 254 254 254 255 255 256 256
285 283 279 277 275 275 277 266 276 269 268 268 265 262 264 260 261 263 261 263 265 263 266 268 268 271 266 266 269 269 267 271 277 266 266 268 264 261 261 256 259 264 263 260 261 258 259 260 260 255 252 252 253 253 253 254 253 254 253 254 254 255 255 254 254 254 254 254 254 254 254 254 253 254 254 254 254 253 253 253 254 255 255 255 255 255 256
279 276 275 273 269 274 271 266 272 268 264 266 269 263 263 261 264 265 265 265 265 265 268 268 269 267 265 264 264 266 274 264 271 265 265 268 261 263 259 258 261 261 258 259 258 257 257 260 252 250 252 251 254 253 253 253 253 252 253 253 253 253 254 253 253 253 253 253 253 253 253 253 253 253 253 253 254 254 253 253 254 254 255 255 255 255 256
276 274 272 269 266 270 267 264 263 260 265 269 266 263 263 262 260 262 261 260 262 264 265 265 265 267 267 267 265 265 266 265 264 265 267 265 260 259 263 264 262 260 259 257 256 258 260 257 251 252 252 252 252 253 252 252 252 252 252 251 252 252 252 252 252 252 253 253 253 253 253 253 253 253 252 253 253 253 253 254 255 255 256 256 255 256 257
276 276 273 271 267 268 268 262 262 262 262 261 262 262 263 262 261 262 260 261 261 263 264 265 266 268 265 267 267 267 267 267 262 267 265 261 261 265 270 261 259 258 254 253 254 256 256 250 250 252 252 252 252 251 252 252 252 252 251 252 252 252 252 252 252 252 252 253 253 253 253 252 252 252 253 252 252 253 254 255 256 257 257 256 256 257 257
270 274 272 266 265 267 265 265 263 262 262 262 263 264 264 264 263 262 262 262 263 266 263 265 266 268 267 269 268 265 266 268 262 264 265 263 266 260 260 259 258 259 255 253 257 252 251 251 251 251 252 252 252 251 251 251 251 251 251 251 251 251 251 251 251 252 252 252 252 252 252 252 252 252 252 252 253 254 255 256 257 257 257 257 257 257 257
274 271 269 267 267 267 265 265 266 264 262 263 264 264 263 263 260 260 261 262 262 261 262 264 266 266 265 270 267 268 266 268 262 262 265 262 259 259 259 256 255 253 256 251 252 248 250 250 251 251 251 251 251 251 251 251 251 251 251 251 251 251 252 251 252 252 252 252 252 252 251 252 252 252 253 253 253 255 256 257 257 257 257 257 257 256 256
273 271 270 267 265 265 265 265 265 262 261 260 261 261 262 261 259 259 261 259 260 259 265 269 272 269 268 267 263 265 263 265 262 265 261 260 259 259 259 254 256 255 252 245 247 249 250 250 251 249 250 249 250 251 251 251 251 252 251 251 252 252 252 252 252 252 252 252 251 251 251 251 252 252 253 253 255 256 256 256 256 256 256 257 256 256 256
270 267 262 261 263 264 265 265 264 261 260 259 260 259 260 259 260 258 261 259 258 261 264 264 267 264 264 265 263 259 262 264 261 260 258 258 260 256 254 259 255 245 246 249 250 251 250 249 249 249 249 249 250 250 251 251 250 250 251 251 251 252 252 252 251 251 251 251 251 252 251 251 252 253 254 255 256 256 255 256 256 256 256 256 257 256 256
269 263 261 260 260 260 260 259 257 257 257 258 257 258 260 258 258 257 260 259 258 261 261 262 261 261 260 258 259 258 260 260 259 257 257 257 250 254 255 251 245 245 246 247 248 246 248 249 249 249 248 249 250 250 250 250 250 250 250 251 251 251 251 250 251 251 251 251 251 251 251 252 253 254 255 255 255 254 254 254 255 256 256 256 256 257 256
Wind_Speed
8 9 10 10 9 9 10 11 12 13 15 4 3 2 3 4 5 2 8 12 17 10 6 6 5 5 3 3 4 1 2 3 3 2 3 4 6 3 6 8 7 8 8 5 6 5 6 6 8 5 6 10 14 9 19 10 9 4 2 6 3 7 2 4 9 6 5 4 3 1 2 2 2 2 1 2 6 8 10 9 3 7 1 7 8 13 8
12 8 7 8 9 9 10 11 11 11 12 3 4 2 2 2 2 1 3 11 10 7 7 5 7 4 4 3 4 1 2 2 4 7 7 4 2 6 4 4 15 12 9 5 6 8 7 7 15 7 8 8 9 16 18 18 5 2 3 2 2 5 3 3 3 5 4 6 9 6 1 1 2 2 5 8 9 7 7 5 2 9 9 13 10 15 6
10 12 10 7 7 8 9 9 10 10 11 9 3 1 2 3 2 4 3 6 6 10 5 8 5 9 10 8 10 8 4 7 14 14 10 4 7 2 6 9 4 3 4 8 8 9 17 7 3 7 5 5 4 7 11 11 10 6 6 10 6 7 2 1 4 7 10 9 9 11 13 5 3 2 7 11 13 15 8 12 9 14 9 13 12 12 11
9 9 10 13 10 8 7 7 8 9 9 11 4 2 1 2 3 2 3 6 7 7 3 8 8 8 9 10 11 9 12 4 9 11 15 13 10 10 4 2 1 7 4 7 9 11 9 13 4 7 5 4 4 10 14 11 11 11 13 7 5 3 6 10 13 12 13 12 10 3 2 0 3 5 6 8 11 12 14 12 13 15 12 15 15 18 21
9 8 9 8 11 14 11 8 7 7 8 8 3 3 1 4 2 3 3 2 11 11 6 10 9 10 5 8 4 14 15 9 5 12 7 8 13 6 10 8 9 5 8 14 13 14 12 13 13 9 6 7 6 4 8 9 14 16 8 11 5 4 7 14 17 21 20 20 20 17 15 16 15 15 16 15 11 10 11 11 14 10 10 17 13 22 21
8 9 9 8 7 8 11 10 7 7 5 7 3 0 2 3 4 2 1 2 2 8 9 10 10 9 12 12 6 11 11 9 9 2 12 5 6 5 1 16 17 18 17 12 12 6 14 12 13 11 14 11 10 15 12 11 10 13 6 11 8 6 10 13 16 22 22 24 23 23 22 20 21 21 21 21 21 17 16 18 18 16 16 22 18 19 21
9 8 8 8 9 7 8 9 8 9 9 3 1 0 4 2 3 4 5 1 4 3 2 4 4 5 5 2 4 7 11 13 7 3 2 4 3 12 12 10 16 19 18 16 14 12 10 9 12 11 8 15 12 11 7 14 15 13 10 5 4 3 12 12 17 22 21 22 23 23 25 23 22 22 23 24 23 24 22 23 23 25 26 24 21 21 25
10 10 9 8 7 8 7 7 7 6 8 4 1 2 1 2 2 2 3 1 5 8 4 4 6 7 5 4 4 5 5 6 9 5 1 3 5 4 16 14 14 12 15 16 18 17 19 20 15 5 6 9 8 11 11 8 1 8 10 5 4 12 9 15 18 15 18 19 22 22 25 25 27 25 25 25 25 24 25 24 23 23 23 24 28 28 26
11 11 9 8 8 8 8 7 6 6 4 3 0 3 1 1 1 2 3 5 4 3 2 3 4 6 4 9 6 5 4 9 4 8 4 8 8 5 13 10 14 11 12 11 13 10 14 14 12 15 14 12 1 3 1 6 9 3 3 3 2 10 10 6 8 10 14 14 21 23 24 25 28 27 26 25 25 25 24 21 22 21 25 25 23 18 18
12 12 11 11 10 8 8 8 7 5 3 2 2 1 2 3 3 1 1 6 5 6 2 2 2 9 9 6 4 3 5 6 8 8 5 5 2 5 10 9 11 10 11 10 8 11 12 12 14 14 16 16 14 13 14 9 4 2 6 3 4 5 3 7 8 15 18 15 20 21 22 21 20 22 23 30 30 28 23 22 22 22 22 21 19 22 21
13 14 12 10 11 10 10 9 8 7 0 1 1 2 2 1 1 2 0 7 7 7 4 6 9 5 5 4 7 7 7 5 4 6 4 10 13 8 9 10 9 9 9 4 7 11 14 15 17 13 13 14 16 14 13 14 14 14 9 4 3 8 12 14 9 15 13 13 19 14 15 19 18 15 29 29 31 29 30 27 27 28 22 20 22 25 21
14 14 14 13 12 11 10 10 10 10 6 5 2 2 2 1 1 1 1 8 10 1 3 8 8 3 6 3 3 4 9 10 8 6 12 8 12 13 11 8 5 9 1 3 9 11 13 13 12 10 12 14 17 18 18 19 17 12 14 16 13 12 11 13 7 9 8 6 9 12 21 18 5 12 14 23 28 28 30 29 28 28 27 28 27 26 24
13 14 14 14 13 12 12 12 12 12 9 2 3 4 3 3 3 1 2 5 8 5 3 6 6 9 5 3 5 7 7 7 7 8 8 9 11 10 5 6 8 7 9 13 12 11 13 15 18 16 17 12 12 15 19 19 20 18 15 14 12 12 12 8 7 6 7 6 7 16 13 3 3 6 15 17 21 23 24 26 23 24 24 24 24 25 25
15 14 14 14 14 14 13 14 14 13 11 7 4 4 3 3 3 2 2 2 8 7 4 8 12 13 10 12 12 9 4 6 6 3 7 3 8 10 11 4 1 3 7 7 6 8 12 8 13 11 13 10 12 11 12 20 21 20 21 18 18 20 15 11 14 9 17 13 16 23 15 17 5 2 6 12 18 15 18 18 19 13 13 14 17 20 21
17 16 16 15 14 15 15 15 13 13 13 11 5 5 4 4 5 4 2 4 9 10 6 9 1 6 2 3 3 6 6 6 7 9 4 3 5 5 4 1 0 3 4 4 4 3 6 8 10 11 10 9 12 10 4 5 4 16 22 21 19 19 19 13 16 10 14 20 18 17 14 19 16 16 9 15 18 18 17 15 13 16 18 16 15 16 11
18 16 16 16 16 15 15 14 14 15 14 13 6 6 6 5 4 2 4 5 3 9 9 12 10 6 6 7 4 5 5 5 5 4 5 4 5 4 2 2 4 2 2 1 1 2 4 6 12 11 12 10 9 8 7 5 5 4 2 4 8 12 14 16 19 16 14 20 19 17 17 10 10 13 14 12 12 8 12 8 12 10 16 17 15 16 11
19 19 19 18 18 17 16 16 16 15 14 13 4 6 7 7 5 6 5 3 6 11 0 6 3 4 0 2 2 5 5 6 4 2 4 5 4 3 4 3 3 0 1 2 2 2 2 5 7 8 9 6 11 11 12 6 11 8 4 4 10 8 8 8 12 14 11 12 12 10 2 2 11 11 14 15 14 10 1 13 5 12 16 16 16 12 10
17 17 18 19 17 17 18 17 17 16 15 15 8 4 4 4 6 3 3 4 6 8 12 6 2 5 8 6 6 4 0 1 2 0 4 3 2 2 2 1 3 3 0 6 2 5 6 6 8 8 10 4 6 7 13 7 11 6 2 6 5 5 6 5 15 13 17 20 17 11 8 4 9 12 19 19 15 2 7 10 8 17 16 17 14 7 9
20 18 18 18 19 19 18 17 17 18 16 15 7 5 6 6 6 8 4 4 7 9 7 4 9 10 7 5 5 3 3 4 2 1 4 6 5 3 4 3 2 6 1 1 2 4 5 7 4 6 9 6 5 6 3 4 3 4 3 4 4 3 3 4 8 10 10 10 14 13 6 3 12 17 14 13 11 5 3 11 9 7 16 17 8 10 13
21 20 19 20 20 19 19 18 18 17 17 16 9 6 5 6 8 9 8 8 6 10 12 8 5 8 4 7 6 4 1 3 4 6 3 8 2 5 6 7 4 3 5 1 1 4 4 7 5 2 1 3 2 5 7 6 4 2 3 2 4 4 7 6 7 7 11 10 11 10 10 1 18 16 15 9 6 9 10 11 10 10 11 11 8 11 10
20 21 21 20 20 20 19 18 18 17 17 18 13 4 7 5 6 7 8 9 7 9 13 8 6 11 8 11 10 9 9 10 7 5 8 8 3 2 1 4 6 1 2 1 1 3 1 2 5 3 1 4 5 5 7 10 10 5 7 6 5 2 10 9 8 5 7 7 7 3 6 15 12 9 5 8 4 8 9 6 11 9 4 7 11 9 8
22 20 20 20 21 20 19 20 18 19 19 18 16 4 7 3 6 8 8 5 7 10 7 1 1 4 8 9 8 6 9 11 13 10 4 4 3 9 5 1 3 2 3 1 0 1 2 1 0 2 3 3 3 5 5 9 13 9 3 3 9 4 5 3 9 5 4 5 10 13 15 13 8 2 3 11 11 5 5 6 6 9 8 4 6 10 11
21 20 21 22 21 21 20 20 20 18 17 17 13 5 9 5 5 6 6 5 5 6 5 7 6 7 6 6 4 8 9 7 5 5 8 8 6 4 8 7 7 3 2 3 6 6 6 3 6 4 5 3 6 6 5 7 7 4 10 4 9 8 12 9 8 8 11 13 9 14 12 12 13 14 9 9 5 4 6 6 7 7 8 8 8 9 12
21 23 23 20 21 22 20 20 22 21 20 19 13 3 6 6 6 6 4 6 6 6 7 9 8 10 10 12 16 14 9 7 9 9 6 8 9 6 2 4 4 1 3 6 8 6 4 2 4 3 7 5 4 5 8 8 8 4 6 9 4 3 5 8 7 8 10 13 7 8 10 20 22 15 6 5 7 7 3 6 6 6 7 8 8 10 11
21 23 22 22 22 22 22 21 19 21 20 19 14 7 4 4 2 6 5 5 3 7 9 4 12 15 11 10 10 8 11 14 13 12 8 9 12 11 13 12 6 9 9 7 1 2 1 2 3 2 7 5 4 7 5 7 8 5 9 6 6 6 2 10 9 14 10 12 10 14 15 16 12 11 9 3 5 7 8 6 4 6 7 6 9 10 11
22 21 23 24 22 21 22 22 22 21 20 20 15 6 8 9 6 8 8 5 4 3 7 9 9 2 4 5 9 11 9 11 12 12 13 14 14 15 14 9 4 4 4 2 4 7 4 1 3 3 3 6 6 5 7 8 9 5 8 10 8 9 7 8 5 12 11 14 13 13 10 11 11 6 3 5 7 8 6 7 9 9 9 9 9 9 13
21 22 21 23 22 21 22 22 22 22 20 19 11 8 7 7 7 9 8 6 1 6 6 9 6 3 1 10 6 1 4 7 8 11 12 12 13 12 10 10 11 6 6 5 2 4 1 4 4 9 7 6 2 4 3 3 5 6 7 8 6 7 9 11 8 10 11 10 11 2 9 13 15 13 3 8 10 8 6 5 7 9 10 10 11 12 12
20 20 22 23 23 21 21 22 21 20 20 18 12 6 5 6 8 9 10 10 11 11 4 3 1 5 1 4 3 4 5 6 10 10 10 12 12 12 13 13 11 8 4 5 4 4 5 7 10 5 2 2 4 7 8 7 6 7 9 11 10 10 11 8 10 9 13 13 8 4 5 9 10 10 5 7 6 7 10 10 9 7 5 7 10 13 13
21 22 21 22 22 21 20 20 20 22 20 15 6 5 4 7 7 8 9 7 6 6 8 8 4 2 7 5 1 5 7 8 8 8 9 9 10 10 10 10 10 9 8 6 6 5 4 8 5 4 4 5 2 4 3 6 8 11 11 13 11 11 12 14 17 18 17 14 6 3 3 8 11 8 10 8 5 3 8 12 12 10 10 10 10 10 11
21 20 21 22 22 21 21 21 21 20 16 4 5 2 3 5 8 9 11 11 8 4 5 4 6 5 2 2 6 4 4 6 8 9 10 10 10 10 10 11 11 11 9 7 7 8 9 6 5 5 6 4 5 3 5 6 8 9 10 11 13 13 13 14 14 13 13 0 2 3 6 10 8 7 5 8 3 6 6 9 11 14 14 13 13 13 12
21 21 21 21 21 21 21 21 17 16 15 2 4 2 3 5 2 9 14 11 10 5 2 2 6 2 4 2 3 9 9 8 8 10 12 12 11 12 11 9 9 9 9 9 7 11 5 3 5 6 6 9 8 3 5 3 6 4 9 13 14 15 14 14 3 0 1 1 1 3 5 10 7 4 7 4 5 8 8 9 10 10 14 15 14 13 13
21 20 22 22 20 20 20 19 20 18 7 7 7 7 4 3 0 5 12 11 9 6 5 4 4 3 3 2 3 4 9 10 8 5 5 5 8 9 8 9 9 9 9 10 8 3 8 11 10 9 8 10 10 4 4 7 11 13 13 13 13 13 11 11 1 2 3 2 4 8 10 10 2 2 7 11 13 13 11 10 11 11 13 12 14 14 13
20 20 21 22 20 19 19 20 20 13 6 8 13 16 11 9 6 3 6 6 4 2 2 3 5 2 2 5 1 2 3 2 3 5 7 7 7 5 7 7 7 6 8 8 6 7 5 8 6 8 12 6 4 5 8 11 12 14 16 15 14 11 7 1 2 3 4 3 3 2 7 7 11 11 9 11 12 10 12 13 11 9 10 12 16 18 15
20 19 21 21 20 18 20 21 17 15 11 5 6 7 7 14 15 15 5 3 2 1 2 4 3 5 4 2 2 4 5 6 5 7 5 4 4 4 5 4 6 6 5 11 8 5 2 3 8 9 2 4 7 4 7 11 14 16 16 15 10 1 0 2 2 4 4 3 2 1 5 10 11 12 11 10 10 10 9 10 7 10 14 13 13 13 13
19 18 19 22 19 17 18 17 7 4 4 5 6 5 5 16 17 14 13 6 3 3 4 4 2 4 3 1 2 5 2 3 4 6 7 5 5 8 5 4 3 8 5 6 5 8 7 8 4 2 7 2 2 6 9 12 15 14 12 12 0 4 2 3 1 5 5 4 4 5 7 9 10 10 11 12 11 10 11 12 9 9 14 16 14 15 13
20 17 18 19 19 11 2 3 3 3 3 4 7 4 11 15 17 12 14 12 8 5 5 4 4 8 6 8 5 3 3 3 3 2 5 1 1 2 2 3 4 7 1 3 7 7 7 5 4 8 6 4 9 8 13 13 12 11 6 1 5 4 3 3 6 8 6 5 6 9 8 5 7 12 13 13 11 8 9 13 15 10 11 15 16 16 15
18 18 17 14 2 5 4 4 2 5 6 4 3 7 10 5 6 3 2 3 2 1 4 3 6 7 9 5 1 4 4 5 4 4 2 4 5 1 3 2 7 2 1 3 4 6 11 5 3 4 5 10 14 14 4 2 1 2 4 5 5 5 4 4 6 8 12 9 5 3 3 8 11 7 8 12 13 12 12 13 12 13 16 19 20 19 18
17 14 1 3 2 2 1 2 4 4 6 6 7 4 3 4 2 2 1 2 2 4 3 2 6 4 3 7 6 4 5 5 2 5 2 3 2 3 2 3 5 3 7 5 7 5 1 2 5 9 11 10 7 6 6 6 6 7 7 7 6 5 5 5 6 7 9 14 11 9 13 13 13 11 4 12 15 17 16 12 12 11 12 14 16 16 17
11 2 3 3 3 3 4 3 4 10 6 2 1 1 1 2 2 0 2 2 1 3 2 6 9 5 3 3 4 1 6 4 2 1 3 3 3 5 1 2 2 2 3 1 7 8 2 3 3 3 8 5 7 4 6 7 8 8 8 7 6 5 6 5 5 6 4 4 7 8 7 11 14 21 18 15 15 16 15 14 14 14 13 15 15 15 15
3 4 4 4 6 4 1 1 7 9 3 3 1 2 1 1 4 3 1 2 2 2 3 5 4 6 10 12 10 8 3 3 6 6 4 4 1 3 1 2 3 2 3 3 4 4 3 3 2 3 6 6 3 7 6 7 6 7 8 6 4 6 6 5 4 5 6 8 9 10 9 11 12 14 16 16 16 19 22 20 15 13 13 16 17 17 18
2 2 2 4 2 3 2 4 4 3 2 2 1 1 2 1 1 1 1 1 2 3 2 3 2 2 4 6 5 8 1 3 1 3 3 4 2 4 2 2 1 3 2 3 4 2 1 1 2 5 8 2 5 5 5 5 4 4 4 4 4 4 3 4 4 4 6 8 7 8 9 10 13 14 14 16 16 17 19 20 21 18 17 18 19 19 15
6 5 3 3 2 2 3 1 2 2 0 1 2 3 2 2 1 1 1 4 5 1 4 2 1 3 3 8 6 3 3 1 2 2 2 3 3 4 3 1 0 3 4 5 1 0 2 2 2 4 1 4 2 6 6 7 7 8 7 5 5 4 5 6 7 5 4 9 9 10 10 11 13 14 14 15 17 18 18 19 22 21 18 17 16 16 15
8 6 5 3 1 1 1 1 2 3 4 2 2 2 1 1 2 4 2 1 1 2 4 1 1 1 1 2 0 1 3 0 1 0 2 3 1 3 2 1 0 1 4 0 1 0 1 2 2 3 3 1 5 5 5 4 6 6 6 6 5 6 6 7 8 10 8 9 11 11 12 12 14 14 14 16 19 23 21 17 18 20 19 18 17 16 16
6 3 0 0 2 1 3 3 2 3 2 2 3 4 3 1 2 1 0 3 1 1 2 3 3 4 3 1 3 0 2 2 2 1 0 1 1 1 1 2 4 4 2 0 1 2 4 3 1 1 1 3 4 6 7 9 9 9 8 5 6 6 6 8 9 11 12 9 9 10 11 12 14 14 13 14 15 20 22 20 17 17 19 18 18 17 15
6 2 2 1 2 2 4 3 1 3 4 4 4 3 4 7 7 8 8 1 1 3 1 2 2 3 3 2 2 1 1 2 2 4 2 2 1 1 1 4 2 1 1 2 1 2 2 4 2 1 5 7 8 8 7 7 7 9 12 12 8 8 9 11 12 11 12 12 12 12 12 12 13 14 13 14 14 13 16 20 18 17 17 17 17 17 16
4 5 4 4 2 1 2 1 1 1 2 2 3 3 4 4 3 3 0 1 1 3 4 1 1 2 1 0 3 2 1 2 1 1 2 1 3 3 4 0 2 1 2 1 3 6 7 1 1 3 5 6 8 8 7 7 7 6 8 13 14 12 11 11 12 13 13 14 13 12 13 12 13 14 15 14 14 15 15 16 16 17 17 17 17 17 16
2 1 2 2 2 1 2 2 3 2 1 1 1 0 1 3 2 3 1 2 1 2 2 3 1 0 2 0 1 2 0 1 1 1 3 1 2 2 2 2 2 1 2 4 4 5 1 1 3 5 7 8 9 8 8 8 8 8 9 10 12 14 14 13 13 14 14 14 14 14 13 13 14 13 14 15 14 14 15 16 16 15 16 16 16 16 16
3 1 2 3 4 3 6 3 3 3 2 2 1 3 3 3 3 3 3 3 4 1 1 1 1 1 2 2 3 3 2 2 1 2 2 2 1 1 0 0 2 2 2 4 6 0 1 2 6 7 8 7 9 11 10 10 9 10 10 12 13 14 14 15 16 15 14 15 15 14 14 14 14 14 15 16 17 15 14 13 14 14 14 14 15 15 15
2 2 3 2 1 2 1 4 8 5 1 3 3 3 3 5 4 0 3 2 2 1 1 1 1 2 1 1 2 2 2 1 2 2 1 0 2 3 2 3 1 3 1 2 1 2 2 5 6 7 9 8 8 9 10 9 10 11 11 12 13 14 14 15 15 16 15 14 13 14 15 14 14 14 15 15 15 14 13 14 14 13 13 14 14 15 14
3 1 2 2 4 4 1 3 6 3 1 1 2 3 3 4 3 1 2 2 2 2 1 2 2 1 1 1 0 1 2 1 2 1 1 2 2 1 1 3 4 4 2 1 2 4 4 5 6 8 7 8 9 9 11 11 9 11 11 11 12 12 13 15 17 16 15 14 14 14 15 14 13 13 14 15 15 15 15 13 13 13 13 13 14 14 13
3 4 2 3 1 4 5 6 8 6 4 3 3 1 1 1 1 1 4 3 4 2 1 1 1 1 0 1 1 0 2 1 1 3 4 4 2 2 3 8 3 1 3 2 4 6 6 6 6 8 9 9 9 11 10 12 12 12 12 12 13 13 13 13 14 14 14 13 13 14 14 14 14 15 15 14 14 14 13 13 11 11 12 12 12 12 10
2 3 2 2 4 5 4 4 7 5 4 4 3 1 1 2 2 2 4 2 2 2 2 0 1 1 2 3 3 1 1 1 1 1 1 2 2 2 1 1 1 3 3 5 7 5 6 6 6 7 8 10 12 12 12 12 12 13 12 13 13 13 14 13 13 13 13 13 13 13 14 15 16 15 14 13 13 12 11 11 11 11 11 10 10 9 10
Wind_Direction
325 345 352 352 354 359 4 360 2 8 2 3 348 289 220 208 236 8 160 167 155 153 201 190 191 210 244 10 288 171 293 210 199 220 171 237 187 206 213 207 233 226 242 197 230 192 247 177 236 204 241 248 248 261 289 301 322 331 322 344 316 12 279 261 273 284 315 306 28 46 242 172 10 309 208 158 223 211 243 254 277 264 225 225 243 239 267
343 329 340 345 347 0 3 2 6 8 13 340 305 264 248 258 254 256 239 185 170 163 196 212 228 250 265 228 247 235 228 239 252 239 215 197 199 210 204 218 210 239 203 199 217 164 274 209 231 247 226 252 232 256 270 290 292 15 196 131 273 346 298 59 319 288 308 328 327 300 42 78 216 181 214 224 240 240 246 270 357 272 239 267 264 263 273
330 348 343 330 341 347 350 355 355 5 8 354 309 265 302 321 272 223 181 222 214 212 180 228 194 215 234 227 239 242 239 208 229 237 240 191 220 255 241 231 227 247 181 223 212 197 211 259 224 204 208 242 237 261 246 249 257 220 169 176 143 228 208 236 240 233 245 237 229 242 252 218 232 239 225 219 219 232 243 245 231 249 235 246 252 266 262
310 318 341 349 338 331 338 349 354 357 7 355 7 302 313 218 278 221 197 187 242 258 243 250 230 226 228 239 234 233 242 232 226 226 252 237 236 224 273 27 0 231 214 235 226 232 215 214 226 204 214 247 261 223 230 217 225 219 166 150 128 213 158 199 217 218 234 239 246 282 133 275 251 245 236 244 240 239 236 244 242 241 242 237 237 245 256
301 304 308 334 358 0 350 337 352 359 350 1 342 304 217 304 268 230 249 213 215 238 208 232 207 233 186 244 145 223 231 237 266 179 263 197 232 237 224 237 233 235 216 239 245 233 243 226 233 217 229 218 238 271 220 242 237 227 168 161 112 153 207 212 222 225 233 242 245 247 257 258 253 254 253 249 238 234 228 226 242 237 253 252 230 240 245
309 310 307 303 319 339 348 336 340 345 1 354 351 297 251 208 249 287 237 249 249 219 236 234 236 238 219 229 201 239 240 212 234 192 225 216 195 201 262 221 222 235 232 242 249 229 237 226 233 229 233 258 259 269 239 244 226 231 231 171 185 180 222 215 220 234 225 233 237 241 246 244 246 246 250 251 248 240 240 241 241 240 239 250 244 241 245
291 297 305 311 303 307 321 332 354 0 349 6 56 262 285 245 312 295 336 352 266 241 340 356 312 309 254 318 264 269 256 258 233 231 330 207 230 198 247 212 222 227 232 236 247 243 259 243 224 227 223 216 234 251 279 244 227 229 233 212 191 198 235 229 221 239 230 229 232 236 240 246 248 245 244 245 249 251 246 248 246 243 247 253 260 256 252
285 288 289 287 295 296 297 305 314 337 1 12 64 254 227 295 270 294 24 312 293 304 337 343 327 304 309 297 204 251 220 268 291 301 304 298 291 229 236 246 247 241 238 230 237 231 236 251 259 245 242 255 209 243 225 272 251 202 220 211 207 212 226 200 234 240 241 233 234 233 236 237 245 245 246 244 247 251 248 247 250 257 261 257 253 252 257
284 281 278 278 284 287 283 283 294 311 8 39 192 281 195 273 63 278 347 310 257 267 277 275 305 295 233 243 237 260 276 277 320 287 246 251 256 269 278 338 339 338 316 303 283 324 336 331 314 327 317 292 287 290 318 225 248 160 243 185 272 194 260 242 256 250 243 230 238 231 233 233 236 241 244 247 245 245 243 241 237 238 246 250 255 256 255
278 279 281 284 277 277 278 274 276 282 307 133 271 182 288 57 295 60 202 265 248 260 295 280 333 257 242 256 301 295 347 353 18 321 246 230 283 1 359 346 325 319 322 310 327 323 302 298 302 295 289 287 284 263 259 275 273 277 227 213 208 186 223 231 232 248 244 233 235 233 235 239 236 230 237 240 238 236 240 242 244 241 243 248 248 250 243
277 276 274 273 279 277 278 279 273 272 76 122 212 260 11 86 15 346 320 264 269 246 249 256 244 257 309 295 295 315 306 308 331 302 296 349 319 341 338 335 312 300 290 311 291 278 277 278 283 278 270 269 272 272 269 252 234 238 249 259 214 218 229 244 227 253 257 232 243 239 240 227 224 205 219 220 231 231 237 239 238 238 230 236 234 246 251
276 276 279 282 279 278 273 270 267 258 230 191 148 217 205 117 84 236 278 248 261 273 191 242 242 287 259 316 332 295 285 295 298 310 298 296 297 308 319 324 344 300 26 317 286 284 279 274 262 253 246 254 258 259 256 256 255 238 229 238 246 234 232 242 224 254 264 257 263 255 235 247 226 225 225 225 232 236 240 242 240 242 242 246 252 254 251
273 276 276 274 272 267 266 266 260 253 247 216 185 220 240 148 134 217 232 244 259 261 241 258 268 269 284 358 307 278 286 291 295 301 294 297 301 306 300 313 306 309 343 314 316 322 320 310 303 295 289 287 265 250 249 248 246 239 235 223 232 238 235 240 236 244 273 244 232 253 248 81 309 202 215 218 233 235 245 255 254 255 250 250 255 257 259
266 269 267 264 263 263 260 258 256 257 249 230 216 217 200 132 156 190 197 245 262 260 268 277 263 263 274 275 273 287 304 283 284 279 289 301 300 296 299 293 316 312 299 307 313 314 306 317 301 312 298 298 282 270 238 234 233 234 238 229 219 229 238 229 260 210 251 245 243 253 274 271 189 109 215 197 215 208 216 241 247 264 319 329 310 304 305
271 266 261 258 258 259 258 258 262 262 255 238 195 235 228 204 169 170 239 263 265 274 255 247 115 99 292 273 282 292 274 285 295 280 271 284 272 256 260 270 328 328 310 352 322 324 278 311 286 295 288 285 278 279 326 282 262 230 235 236 224 215 222 209 241 221 220 253 257 260 256 254 253 226 211 215 215 214 216 217 235 37 358 356 354 346 1
267 270 274 277 273 270 268 268 262 253 250 242 212 215 227 217 182 151 199 197 248 270 255 228 231 240 247 259 257 250 263 268 262 287 289 249 239 304 311 1 330 33 22 62 270 293 285 274 273 275 270 274 288 304 263 297 290 302 346 272 273 266 250 244 230 239 225 234 239 240 250 256 36 357 354 330 306 250 248 251 246 25 353 333 353 336 354
262 263 263 260 260 261 262 261 260 256 250 244 226 208 225 213 193 200 198 209 212 236 345 84 73 106 179 289 222 255 224 242 256 280 297 270 273 287 311 329 321 75 203 20 275 213 259 256 260 265 277 275 275 268 293 266 281 286 316 353 345 309 267 270 264 281 274 290 280 279 292 4 351 346 346 326 322 277 264 255 168 354 343 325 331 326 353
268 268 265 263 263 263 261 259 257 257 257 245 222 193 223 205 196 161 185 211 235 253 247 210 186 221 236 223 239 241 37 280 314 289 245 273 335 286 270 348 324 260 102 292 228 262 253 264 274 274 271 275 302 337 275 314 286 303 22 301 325 340 321 275 277 266 269 267 267 271 273 91 17 1 346 342 322 53 215 242 9 326 321 321 316 304 343
261 261 262 261 259 258 257 256 256 254 252 250 234 192 225 206 186 189 175 220 223 248 248 168 198 220 231 228 216 185 175 160 157 217 272 320 258 198 166 238 251 298 229 135 260 251 261 257 257 256 276 280 245 249 339 59 288 66 272 329 327 316 272 292 308 295 292 295 283 273 290 78 11 358 11 348 349 288 354 333 290 295 304 297 299 317 329
266 260 260 260 259 258 257 257 257 255 254 250 238 221 223 186 200 191 185 220 238 257 263 241 183 214 210 219 214 200 242 215 182 218 226 241 293 47 359 342 319 111 329 170 168 240 245 263 270 15 301 273 255 298 300 239 229 273 344 231 264 277 319 292 300 302 293 272 268 267 254 71 25 344 351 52 61 290 301 311 304 281 282 288 321 339 335
265 264 263 263 263 262 261 260 260 258 254 251 246 218 258 197 188 209 208 219 230 257 262 243 195 220 221 240 224 211 200 219 192 211 215 229 214 94 178 223 225 158 224 103 177 262 296 295 302 271 264 322 278 316 274 314 292 243 247 264 250 288 285 275 257 244 259 268 260 246 1 322 342 23 330 332 321 289 301 281 300 311 318 347 348 333 326
261 262 261 261 262 261 261 261 258 257 257 255 248 192 247 208 186 205 206 166 220 228 254 58 112 221 233 237 241 217 216 222 223 207 188 241 237 212 217 162 204 163 218 108 26 318 269 225 345 321 299 297 13 249 302 302 278 300 274 172 286 178 194 264 293 336 303 255 289 299 304 313 327 50 304 306 313 345 305 307 300 321 334 348 330 322 328
263 263 262 259 258 259 260 259 257 256 257 258 257 163 221 202 205 203 157 198 223 255 274 274 264 259 251 248 230 219 223 228 223 194 200 220 259 239 216 227 249 188 226 216 194 203 218 212 239 212 260 222 231 267 257 208 282 293 281 255 280 325 303 324 322 294 304 288 291 298 307 319 321 321 324 319 334 40 1 356 349 343 327 326 323 318 317
260 258 258 260 260 259 258 257 258 257 256 252 244 202 237 212 194 164 194 219 214 255 258 235 242 239 224 233 236 236 234 231 218 215 195 198 237 249 263 229 206 214 223 210 187 189 207 162 207 186 230 241 266 257 267 266 240 269 291 298 269 302 318 300 281 306 318 284 316 297 331 317 310 315 348 48 34 350 14 26 343 328 320 316 313 310 308
262 262 259 258 258 258 260 258 257 261 258 256 250 222 219 251 176 175 170 221 220 210 246 247 220 235 233 227 241 236 221 227 231 228 208 193 204 217 232 225 186 205 233 226 130 104 105 186 262 186 238 229 203 254 218 261 270 246 265 274 318 284 356 315 285 284 268 283 304 303 294 276 285 311 332 38 355 350 340 327 314 310 305 311 306 306 303
263 260 259 259 258 256 256 257 256 254 254 251 245 209 210 226 201 195 200 227 237 208 241 247 272 95 173 210 229 220 211 212 218 219 214 214 214 219 235 252 252 209 225 166 146 192 180 192 187 210 224 265 187 230 246 220 252 275 253 258 250 266 304 265 283 282 289 287 289 281 299 301 290 301 68 352 344 323 322 319 319 318 321 324 325 322 314
267 265 262 258 256 258 260 261 260 257 253 252 247 222 209 214 179 177 182 183 110 293 226 252 261 294 193 218 231 191 199 205 207 212 219 217 221 224 229 236 244 235 225 248 225 176 192 202 194 244 215 242 220 219 229 275 248 260 263 256 252 268 253 264 282 285 276 272 283 37 322 302 307 308 45 345 314 315 309 319 318 330 332 337 329 318 311
266 262 263 262 261 260 259 256 257 258 254 254 253 231 189 209 208 195 201 187 194 229 268 253 207 244 285 281 260 240 224 199 206 211 212 218 216 215 218 226 227 229 218 197 261 214 196 212 231 229 247 262 253 257 233 255 265 261 249 253 238 240 255 261 259 254 271 272 280 135 242 273 261 277 330 321 306 330 335 325 322 319 323 326 323 315 312
265 264 262 262 261 259 260 260 257 258 256 250 205 230 275 239 226 200 204 202 207 238 242 252 276 274 263 254 136 222 221 203 204 200 208 213 213 212 219 225 228 228 228 215 217 217 208 229 204 184 203 204 182 240 203 223 225 239 234 242 241 238 238 244 250 259 267 277 281 165 200 258 286 310 313 301 315 38 328 319 319 324 323 324 316 307 309
266 265 265 262 261 259 258 257 255 255 254 269 73 109 242 258 199 202 200 193 183 182 218 240 240 244 341 258 231 194 200 199 207 209 210 214 213 216 217 214 223 222 223 221 207 230 226 231 219 223 233 189 221 217 222 226 239 239 236 237 242 249 245 245 253 259 272 184 165 240 261 270 278 279 279 285 307 38 332 311 317 321 322 323 317 314 313
265 264 261 259 260 262 258 255 251 252 251 164 101 168 206 264 199 191 197 191 182 171 198 213 249 339 303 237 198 208 196 194 201 209 218 217 218 217 220 214 226 215 227 226 222 234 219 227 219 229 224 209 215 184 210 208 243 241 228 230 239 246 250 257 245 208 99 63 274 253 256 264 271 325 288 262 327 336 321 307 318 320 314 316 310 310 309
264 262 261 258 255 255 258 257 253 250 224 164 191 197 190 159 332 184 191 188 160 159 171 232 251 215 239 260 223 206 191 203 201 196 215 191 231 222 228 204 223 212 219 228 227 238 224 235 237 236 227 220 219 245 234 240 248 251 251 248 248 252 255 264 133 142 83 25 11 320 287 277 135 153 287 321 321 317 308 311 317 314 312 311 305 300 291
265 263 263 262 259 259 260 258 253 242 197 220 234 241 253 269 308 353 173 119 133 195 150 179 213 221 223 242 320 304 157 114 198 183 235 191 225 186 224 209 224 232 218 237 221 235 208 229 226 240 236 219 232 244 237 235 241 246 250 256 260 258 250 143 110 123 91 37 46 215 269 304 302 313 314 303 298 297 312 315 315 314 309 307 303 305 306
269 267 262 259 258 257 259 255 257 273 280 249 242 235 218 228 233 219 162 113 104 222 158 187 204 211 233 356 59 279 151 167 206 174 242 232 182 163 207 184 198 219 193 214 220 240 279 215 207 232 209 226 217 232 247 241 242 249 253 256 259 7 145 287 221 134 56 47 26 322 294 285 289 293 295 287 288 304 302 294 312 317 307 301 294 294 300
269 271 268 261 254 254 256 261 251 167 207 229 248 247 206 213 209 197 171 154 105 220 183 236 164 218 233 345 165 264 175 112 199 195 198 253 156 193 196 199 222 207 233 183 239 222 226 220 182 122 222 189 169 229 239 244 244 247 251 254 321 13 2 303 109 54 352 340 335 289 268 279 290 292 297 303 303 303 308 306 311 312 303 300 297 297 302
269 263 258 258 259 270 293 258 194 159 178 222 227 191 201 213 212 195 184 191 192 194 214 198 189 213 207 230 217 254 110 223 197 177 200 180 247 198 158 164 228 226 166 188 224 213 227 203 143 232 202 204 227 225 234 235 246 251 265 2 51 59 60 358 331 325 318 303 285 278 272 278 281 296 300 295 297 302 309 306 305 302 288 292 294 299 300
265 263 260 263 295 114 194 208 192 185 206 178 201 204 220 172 22 15 238 199 294 166 201 193 198 198 189 211 136 244 131 227 182 189 200 187 213 226 139 177 224 208 159 235 200 212 230 192 195 226 184 221 234 241 276 5 14 333 63 78 57 54 37 22 352 335 321 315 242 213 337 311 298 290 291 296 302 308 305 300 304 311 308 304 303 303 300
262 258 245 103 130 158 200 229 200 214 193 190 152 86 5 59 172 148 268 237 214 123 234 159 234 224 178 157 207 207 137 243 127 172 271 207 153 251 168 184 216 204 228 219 226 182 69 128 206 217 238 237 253 56 51 63 68 69 67 57 38 28 24 2 358 351 349 339 339 337 331 321 311 299 284 301 307 306 300 296 294 289 286 287 287 291 296
262 224 125 191 150 214 192 239 216 165 129 64 76 73 190 137 96 255 212 184 178 209 218 171 218 166 130 194 262 249 176 176 171 157 188 266 129 288 77 187 265 126 267 152 274 128 233 225 228 203 245 238 231 69 45 59 68 59 54 38 27 14 3 356 355 2 328 279 277 299 295 299 304 305 309 307 300 295 289 292 293 295 292 289 289 291 286
144 189 170 158 207 196 160 279 164 139 130 162 290 120 217 208 147 236 115 148 221 233 137 228 199 193 184 199 204 239 165 158 202 227 188 298 129 165 263 70 268 102 240 201 247 108 170 216 210 180 259 234 150 51 42 39 49 30 30 11 5 357 341 334 322 312 300 288 287 285 287 280 280 280 288 292 295 295 299 298 293 288 290 290 293 292 290
198 131 161 205 191 144 150 99 54 53 103 119 125 229 110 291 186 193 86 252 207 236 203 179 117 183 233 199 204 233 249 115 239 125 145 206 229 83 104 217 199 82 233 226 261 111 141 176 195 185 230 36 54 20 27 24 28 359 4 339 343 329 321 312 303 296 295 290 283 279 273 272 273 274 274 276 279 281 284 289 294 296 297 295 295 292 292
191 179 179 125 128 106 66 47 131 107 279 171 143 215 170 207 58 10 142 165 235 234 300 154 270 196 227 174 194 156 284 170 139 144 145 245 248 165 220 233 336 172 224 224 121 111 95 219 208 241 72 51 44 30 14 3 352 349 332 342 329 322 318 307 300 288 265 278 286 283 279 275 274 274 276 280 281 281 283 289 290 292 291 290 289 288 290
155 126 127 108 105 66 116 64 243 125 149 170 128 237 163 117 198 165 230 206 266 127 255 49 221 150 328 74 323 186 183 200 162 16 93 208 304 55 92 316 184 276 238 342 82 57 227 227 259 250 62 41 34 2 13 321 332 310 315 313 320 320 310 306 303 300 295 284 284 283 283 281 276 275 279 280 282 282 280 278 283 290 293 292 290 290 291
130 155 114 304 99 261 121 217 175 73 226 154 160 191 167 163 285 132 190 250 200 277 250 133 233 110 230 306 144 163 27 351 112 83 331 251 87 225 100 220 219 244 51 32 108 185 220 214 213 71 9 332 352 355 343 342 332 323 322 323 318 308 310 302 302 301 299 291 276 278 279 279 282 282 279 276 278 284 289 290 287 286 288 291 290 291 291
144 182 117 90 108 211 97 235 77 149 189 199 173 200 167 192 205 192 191 262 85 204 343 53 76 115 185 258 43 321 134 205 351 105 233 103 27 290 122 267 264 18 115 241 282 308 345 238 90 2 24 340 337 329 328 326 325 324 316 316 316 318 317 315 309 306 298 298 295 295 290 289 287 287 286 285 284 282 288 291 295 293 291 291 292 292 293
170 161 134 140 182 223 142 206 92 346 281 169 196 182 182 229 164 192 243 18 72 7 69 8 356 109 159 236 131 214 44 98 61 226 145 98 110 260 227 216 74 83 260 143 208 218 224 87 43 359 342 317 314 316 321 308 317 314 325 318 320 317 312 307 304 300 298 300 300 297 294 295 293 296 296 292 291 290 286 283 286 288 291 293 295 297 299
115 131 127 91 131 219 92 164 221 203 188 95 6 298 164 128 103 105 78 351 47 281 305 244 182 176 144 247 69 340 34 90 143 231 78 82 194 250 42 105 245 180 181 242 238 242 238 102 287 330 310 316 314 315 312 319 315 319 312 303 306 309 310 307 304 303 301 300 297 298 298 299 298 296 294 296 291 287 285 285 286 288 294 295 297 298 299
142 146 105 134 189 153 178 209 117 97 21 107 129 99 119 142 86 41 4 342 296 302 5 22 64 50 0 299 81 186 204 160 68 282 165 198 48 47 310 57 236 246 182 190 231 58 13 345 322 311 309 311 313 315 318 317 319 313 309 307 305 306 309 308 306 305 305 304 305 304 302 302 300 300 299 295 294 293 291 293 298 300 297 297 299 303 305
116 115 144 168 161 126 125 125 134 98 45 28 45 53 65 86 81 1 317 342 340 325 267 118 115 79 231 92 145 167 229 188 151 227 87 60 140 214 160 233 188 247 262 65 100 102 282 323 289 299 304 310 308 310 306 307 307 309 308 306 307 305 305 304 303 303 305 304 303 303 302 301 300 298 296 296 298 301 303 303 303 303 306 307 308 306 305
105 122 45 74 75 358 52 94 85 118 104 15 29 59 61 85 98 330 345 354 319 319 264 220 244 127 246 97 284 150 227 182 176 329 76 213 196 243 165 245 208 213 221 164 274 299 294 295 305 304 304 308 305 305 306 307 304 301 301 300 298 301 300 303 304 305 303 303 302 300 299 300 299 298 300 302 300 301 305 306 310 311 311 310 307 304 304
22 68 88 312 144 179 136 165 176 178 192 191 134 72 37 84 84 291 354 2 330 7 60 126 146 118 28 97 143 46 240 69 64 208 165 204 174 164 192 232 241 128 237 232 260 294 297 290 300 302 307 304 307 303 301 302 303 300 300 298 297 296 299 300 300 301 300 300 300 300 300 299 295 295 295 294 299 307 309 310 311 312 313 311 308 305 317
79 85 97 16 25 28 52 85 48 71 77 97 102 1 27 97 15 328 328 327 323 119 168 295 83 100 97 195 223 204 357 45 216 55 264 258 58 196 256 152 144 211 253 300 293 279 280 281 283 289 292 299 303 304 301 298 299 299 299 300 302 303 303 304 302 301 301 303 302 300 297 296 297 295 295 300 307 312 312 313 318 319 317 316 312 331 339